#Datum;Uhrzeit;WR;Pac;DaySum;Status;WR;Pac;DaySum;Status;Pdc1;Udc;Temp;WR;Pac;DaySum;Status;Pdc1;Udc;Temp;WR;Pac;DaySum;Status;Pdc1;Udc;Temp;WR;Pac;DaySum;Status;Pdc1;Pdc2;Udc1;Udc2;Temp;WR;Pac;DaySum;Status;Pdc1;Pdc2;Udc1;Udc2;Temp;WR;Pac;DaySum;Status;Pdc1;Udc;Temp;WR;Pac;DaySum;Status;Pdc1;Udc;Temp;WR;Pac;DaySum;Status;Pdc1;Udc;Temp
03.02.18;23:55:00;1;623;12632;0;2;0;5464;0;0;0;0;3;0;3409;0;0;0;0;4;0;4687;0;0;0;0;5;0;11217;0;0;0;0;0;0;6;0;8306;0;0;0;0;0;0;7;0;6040;0;0;0;0;8;0;6053;0;0;0;0;9;0;3257;0;0;0;0
03.02.18;23:50:00;1;184;12585;0;2;0;5464;0;0;0;0;3;0;3409;0;0;0;0;4;0;4687;0;0;0;0;5;0;11217;0;0;0;0;0;0;6;0;8306;0;0;0;0;0;0;7;0;6040;0;0;0;0;8;0;6053;0;0;0;0;9;0;3257;0;0;0;0
03.02.18;23:45:00;1;184;12569;0;2;0;5464;0;0;0;0;3;0;3409;0;0;0;0;4;0;4687;0;0;0;0;5;0;11217;0;0;0;0;0;0;6;0;8306;0;0;0;0;0;0;7;0;6040;0;0;0;0;8;0;6053;0;0;0;0;9;0;3257;0;0;0;0
03.02.18;23:40:00;1;713;12554;0;2;0;5464;0;0;0;0;3;0;3409;0;0;0;0;4;0;4687;0;0;0;0;5;0;11217;0;0;0;0;0;0;6;0;8306;0;0;0;0;0;0;7;0;6040;0;0;0;0;8;0;6053;0;0;0;0;9;0;3257;0;0;0;0
03.02.18;23:35:00;1;184;12506;0;2;0;5464;0;0;0;0;3;0;3409;0;0;0;0;4;0;4687;0;0;0;0;5;0;11217;0;0;0;0;0;0;6;0;8306;0;0;0;0;0;0;7;0;6040;0;0;0;0;8;0;6053;0;0;0;0;9;0;3257;0;0;0;0
03.02.18;23:30:00;1;210;12491;0;2;0;5464;0;0;0;0;3;0;3409;0;0;0;0;4;0;4687;0;0;0;0;5;0;11217;0;0;0;0;0;0;6;0;8306;0;0;0;0;0;0;7;0;6040;0;0;0;0;8;0;6053;0;0;0;0;9;0;3257;0;0;0;0
03.02.18;23:25:00;1;830;12473;0;2;0;5464;0;0;0;0;3;0;3409;0;0;0;0;4;0;4687;0;0;0;0;5;0;11217;0;0;0;0;0;0;6;0;8306;0;0;0;0;0;0;7;0;6040;0;0;0;0;8;0;6053;0;0;0;0;9;0;3257;0;0;0;0
03.02.18;23:20:00;1;227;12420;0;2;0;5464;0;0;0;0;3;0;3409;0;0;0;0;4;0;4687;0;0;0;0;5;0;11217;0;0;0;0;0;0;6;0;8306;0;0;0;0;0;0;7;0;6040;0;0;0;0;8;0;6053;0;0;0;0;9;0;3257;0;0;0;0
03.02.18;23:15:00;1;231;12401;0;2;0;5464;0;0;0;0;3;0;3409;0;0;0;0;4;0;4687;0;0;0;0;5;0;11217;0;0;0;0;0;0;6;0;8306;0;0;0;0;0;0;7;0;6040;0;0;0;0;8;0;6053;0;0;0;0;9;0;3257;0;0;0;0
03.02.18;23:10:00;1;547;12384;0;2;0;5464;0;0;0;0;3;0;3409;0;0;0;0;4;0;4687;0;0;0;0;5;0;11217;0;0;0;0;0;0;6;0;8306;0;0;0;0;0;0;7;0;6040;0;0;0;0;8;0;6053;0;0;0;0;9;0;3257;0;0;0;0
03.02.18;23:05:00;1;183;12339;0;2;0;5464;0;0;0;0;3;0;3409;0;0;0;0;4;0;4687;0;0;0;0;5;0;11217;0;0;0;0;0;0;6;0;8306;0;0;0;0;0;0;7;0;6040;0;0;0;0;8;0;6053;0;0;0;0;9;0;3257;0;0;0;0
03.02.18;23:00:00;1;183;12324;0;2;0;5464;0;0;0;0;3;0;3409;0;0;0;0;4;0;4687;0;0;0;0;5;0;11217;0;0;0;0;0;0;6;0;8306;0;0;0;0;0;0;7;0;6040;0;0;0;0;8;0;6053;0;0;0;0;9;0;3257;0;0;0;0
03.02.18;22:55:00;1;822;12309;0;2;0;5464;0;0;0;0;3;0;3409;0;0;0;0;4;0;4687;0;0;0;0;5;0;11217;2;0;0;0;0;0;6;0;8306;2;0;0;0;0;0;7;0;6040;0;0;0;0;8;0;6053;0;0;0;0;9;0;3257;0;0;0;0
03.02.18;22:50:00;1;250;12257;0;2;0;5464;0;0;0;0;3;0;3409;0;0;0;0;4;0;4687;0;0;0;0;5;0;11217;2;0;0;0;0;0;6;0;8306;2;0;0;0;0;0;7;0;6040;0;0;0;0;8;0;6053;0;0;0;0;9;0;3257;0;0;0;0
03.02.18;22:45:00;1;250;12236;0;2;0;5464;0;0;0;0;3;0;3409;0;0;0;0;4;0;4687;0;0;0;0;5;0;11217;2;0;0;0;0;0;6;0;8306;2;0;0;0;0;0;7;0;6040;0;0;0;0;8;0;6053;0;0;0;0;9;0;3257;0;0;0;0
03.02.18;22:40:00;1;608;12215;0;2;0;5464;0;0;0;0;3;0;3409;0;0;0;0;4;0;4687;0;0;0;0;5;0;11217;2;0;0;0;0;0;6;0;8306;2;0;0;0;0;0;7;0;6040;0;0;0;0;8;0;6053;0;0;0;0;9;0;3257;0;0;0;0
03.02.18;22:35:00;1;273;12160;0;2;0;5464;0;0;0;0;3;0;3409;0;0;0;0;4;0;4687;0;0;0;0;5;0;11217;2;0;0;0;0;0;6;0;8306;2;0;0;0;0;0;7;0;6040;0;0;0;0;8;0;6053;0;0;0;0;9;0;3257;0;0;0;0
03.02.18;22:30:00;1;306;12137;0;2;0;5464;0;0;0;0;3;0;3409;0;0;0;0;4;0;4687;0;0;0;0;5;0;11217;2;0;0;0;0;0;6;0;8306;2;0;0;0;0;0;7;0;6040;0;0;0;0;8;0;6053;0;0;0;0;9;0;3257;0;0;0;0
03.02.18;22:25:00;1;496;12113;0;2;0;5464;0;0;0;0;3;0;3409;0;0;0;0;4;0;4687;0;0;0;0;5;0;11217;2;0;0;0;0;0;6;0;8306;2;0;0;0;0;0;7;0;6040;0;0;0;0;8;0;6053;0;0;0;0;9;0;3257;0;0;0;0
03.02.18;22:20:00;1;205;12060;0;2;0;5464;0;0;0;0;3;0;3409;0;0;0;0;4;0;4687;0;0;0;0;5;0;11217;2;0;0;0;0;0;6;0;8306;2;0;0;0;0;0;7;0;6040;0;0;0;0;8;0;6053;0;0;0;0;9;0;3257;0;0;0;0
03.02.18;22:15:00;1;184;12043;0;2;0;5464;0;0;0;0;3;0;3409;0;0;0;0;4;0;4687;0;0;0;0;5;0;11217;2;0;0;0;0;0;6;0;8306;2;0;0;0;0;0;7;0;6040;0;0;0;0;8;0;6053;0;0;0;0;9;0;3257;0;0;0;0
03.02.18;22:10:00;1;358;12028;0;2;0;5464;0;0;0;0;3;0;3409;0;0;0;0;4;0;4687;0;0;0;0;5;0;11217;2;0;0;0;0;0;6;0;8306;2;0;0;0;0;0;7;0;6040;0;0;0;0;8;0;6053;0;0;0;0;9;0;3257;0;0;0;0
03.02.18;22:05:00;1;186;11980;0;2;0;5464;0;0;0;0;3;0;3409;0;0;0;0;4;0;4687;0;0;0;0;5;0;11217;2;0;0;0;0;0;6;0;8306;2;0;0;0;0;0;7;0;6040;0;0;0;0;8;0;6053;0;0;0;0;9;0;3257;0;0;0;0
03.02.18;22:00:00;1;187;11964;0;2;0;5464;0;0;0;0;3;0;3409;0;0;0;0;4;0;4687;0;0;0;0;5;0;11217;2;0;0;0;0;0;6;0;8306;2;0;0;0;0;0;7;0;6040;0;0;0;0;8;0;6053;0;0;0;0;9;0;3257;0;0;0;0
03.02.18;21:55:00;1;219;11949;0;2;0;5464;0;0;0;0;3;0;3409;0;0;0;0;4;0;4687;0;0;0;0;5;0;11217;2;0;0;0;0;0;6;0;8306;2;0;0;0;0;0;7;0;6040;0;0;0;0;8;0;6053;0;0;0;0;9;0;3257;0;0;0;0
03.02.18;21:50:00;1;542;11913;0;2;0;5464;0;0;0;0;3;0;3409;0;0;0;0;4;0;4687;0;0;0;0;5;0;11217;2;0;0;0;0;0;6;0;8306;2;0;0;0;0;0;7;0;6040;0;0;0;0;8;0;6053;0;0;0;0;9;0;3257;0;0;0;0
03.02.18;21:45:00;1;187;11888;0;2;0;5464;0;0;0;0;3;0;3409;0;0;0;0;4;0;4687;0;0;0;0;5;0;11217;2;0;0;0;0;0;6;0;8306;2;0;0;0;0;0;7;0;6040;0;0;0;0;8;0;6053;0;0;0;0;9;0;3257;0;0;0;0
03.02.18;21:40:00;1;217;11872;0;2;0;5464;0;0;0;0;3;0;3409;0;0;0;0;4;0;4687;0;0;0;0;5;0;11217;2;0;0;0;0;0;6;0;8306;2;0;0;0;0;0;7;0;6040;0;0;0;0;8;0;6053;0;0;0;0;9;0;3257;0;0;0;0
03.02.18;21:35:00;1;841;11845;0;2;0;5464;0;0;0;0;3;0;3409;0;0;0;0;4;0;4687;0;0;0;0;5;0;11217;2;0;0;0;0;0;6;0;8306;2;0;0;0;0;0;7;0;6040;0;0;0;0;8;0;6053;0;0;0;0;9;0;3257;0;0;0;0
03.02.18;21:30:00;1;231;11801;0;2;0;5464;0;0;0;0;3;0;3409;0;0;0;0;4;0;4687;0;0;0;0;5;0;11217;2;0;0;0;0;0;6;0;8306;2;0;0;0;0;0;7;0;6040;0;0;0;0;8;0;6053;0;0;0;0;9;0;3257;0;0;0;0
03.02.18;21:25:00;1;187;11781;0;2;0;5464;0;0;0;0;3;0;3409;0;0;0;0;4;0;4687;0;0;0;0;5;0;11217;2;0;0;0;0;0;6;0;8306;2;0;0;0;0;0;7;0;6040;0;0;0;0;8;0;6053;0;0;0;0;9;0;3257;0;0;0;0
03.02.18;21:20:00;1;391;11765;0;2;0;5464;0;0;0;0;3;0;3409;0;0;0;0;4;0;4687;0;0;0;0;5;0;11217;2;0;0;0;0;0;6;0;8306;2;0;0;0;0;0;7;0;6040;0;0;0;0;8;0;6053;0;0;0;0;9;0;3257;0;0;0;0
03.02.18;21:15:00;1;218;11718;0;2;0;5464;0;0;0;0;3;0;3409;0;0;0;0;4;0;4687;0;0;0;0;5;0;11217;2;0;0;0;0;0;6;0;8306;2;0;0;0;0;0;7;0;6040;0;0;0;0;8;0;6053;0;0;0;0;9;0;3257;0;0;0;0
03.02.18;21:10:00;1;254;11699;0;2;0;5464;0;0;0;0;3;0;3409;0;0;0;0;4;0;4687;0;0;0;0;5;0;11217;2;0;0;0;0;0;6;0;8306;2;0;0;0;0;0;7;0;6040;0;0;0;0;8;0;6053;0;0;0;0;9;0;3257;0;0;0;0
03.02.18;21:05:00;1;1062;11678;0;2;0;5464;0;0;0;0;3;0;3409;0;0;0;0;4;0;4687;0;0;0;0;5;0;11217;2;0;0;0;0;0;6;0;8306;2;0;0;0;0;0;7;0;6040;0;0;0;0;8;0;6053;0;0;0;0;9;0;3257;0;0;0;0
03.02.18;21:00:00;1;256;11626;0;2;0;5464;0;0;0;0;3;0;3409;0;0;0;0;4;0;4687;0;0;0;0;5;0;11217;2;0;0;0;0;0;6;0;8306;2;0;0;0;0;0;7;0;6040;0;0;0;0;8;0;6053;0;0;0;0;9;0;3257;0;0;0;0
03.02.18;20:55:00;1;254;11605;0;2;0;5464;0;0;0;0;3;0;3409;0;0;0;0;4;0;4687;0;0;0;0;5;0;11217;2;0;0;0;0;0;6;0;8306;2;0;0;0;0;0;7;0;6040;0;0;0;0;8;0;6053;0;0;0;0;9;0;3257;0;0;0;0
03.02.18;20:50:00;1;645;11583;0;2;0;5464;0;0;0;0;3;0;3409;0;0;0;0;4;0;4687;0;0;0;0;5;0;11217;2;0;0;0;0;0;6;0;8306;2;0;0;0;0;0;7;0;6040;0;0;0;0;8;0;6053;0;0;0;0;9;0;3257;0;0;0;0
03.02.18;20:45:00;1;229;11528;0;2;0;5464;0;0;0;0;3;0;3409;0;0;0;0;4;0;4687;0;0;0;0;5;0;11217;2;0;0;0;0;0;6;0;8306;2;0;0;0;0;0;7;0;6040;0;0;0;0;8;0;6053;0;0;0;0;9;0;3257;0;0;0;0
03.02.18;20:40:00;1;229;11509;0;2;0;5464;0;0;0;0;3;0;3409;0;0;0;0;4;0;4687;0;0;0;0;5;0;11217;2;0;0;0;0;0;6;0;8306;2;0;0;0;0;0;7;0;6040;0;0;0;0;8;0;6053;0;0;0;0;9;0;3257;0;0;0;0
03.02.18;20:35:00;1;633;11490;0;2;0;5464;0;0;0;0;3;0;3409;0;0;0;0;4;0;4687;0;0;0;0;5;0;11217;2;0;0;0;0;0;6;0;8306;2;0;0;0;0;0;7;0;6040;0;0;0;0;8;0;6053;0;0;0;0;9;0;3257;0;0;0;0
03.02.18;20:30:00;1;187;11439;0;2;0;5464;0;0;0;0;3;0;3409;0;0;0;0;4;0;4687;0;0;0;0;5;0;11217;2;0;0;0;0;0;6;0;8306;2;0;0;0;0;0;7;0;6040;0;0;0;0;8;0;6053;0;0;0;0;9;0;3257;0;0;0;0
03.02.18;20:25:00;1;187;11423;0;2;0;5464;0;0;0;0;3;0;3409;0;0;0;0;4;0;4687;0;0;0;0;5;0;11217;2;0;0;0;0;0;6;0;8306;2;0;0;0;0;0;7;0;6040;0;0;0;0;8;0;6053;0;0;0;0;9;0;3257;0;0;0;0
03.02.18;20:20:00;1;365;11407;0;2;0;5464;0;0;0;0;3;0;3409;0;0;0;0;4;0;4687;0;0;0;0;5;0;11217;2;0;0;0;0;0;6;0;8306;2;0;0;0;0;0;7;0;6040;0;0;0;0;8;0;6053;0;0;0;0;9;0;3257;0;0;0;0
03.02.18;20:15:00;1;395;11363;0;2;0;5464;0;0;0;0;3;0;3409;0;0;0;0;4;0;4687;0;0;0;0;5;0;11217;2;0;0;0;0;0;6;0;8306;2;0;0;0;0;0;7;0;6040;0;0;0;0;8;0;6053;0;0;0;0;9;0;3257;0;0;0;0
03.02.18;20:10:00;1;188;11346;0;2;0;5464;0;0;0;0;3;0;3409;0;0;0;0;4;0;4687;0;0;0;0;5;0;11217;2;0;0;0;0;0;6;0;8306;2;0;0;0;0;0;7;0;6040;0;0;0;0;8;0;6053;0;0;0;0;9;0;3257;0;0;0;0
03.02.18;20:05:00;1;187;11330;0;2;0;5464;0;0;0;0;3;0;3409;0;0;0;0;4;0;4687;0;0;0;0;5;0;11217;2;0;0;0;0;0;6;0;8306;2;0;0;0;0;0;7;0;6040;0;0;0;0;8;0;6053;0;0;0;0;9;0;3257;0;0;0;0
03.02.18;20:00:00;1;366;11315;0;2;0;5464;0;0;0;0;3;0;3409;0;0;0;0;4;0;4687;0;0;0;0;5;0;11217;2;0;0;0;0;0;6;0;8306;2;0;0;0;0;0;7;0;6040;0;0;0;0;8;0;6053;0;0;0;0;9;0;3257;0;0;0;0
03.02.18;19:55:00;1;210;11266;0;2;0;5464;0;0;0;0;3;0;3409;0;0;0;0;4;0;4687;0;0;0;0;5;0;11217;2;0;0;0;0;0;6;0;8306;2;0;0;0;0;0;7;0;6040;0;0;0;0;8;0;6053;0;0;0;0;9;0;3257;0;0;0;0
03.02.18;19:50:00;1;228;11248;0;2;0;5464;0;0;0;0;3;0;3409;0;0;0;0;4;0;4687;0;0;0;0;5;0;11217;2;0;0;0;0;0;6;0;8306;2;0;0;0;0;0;7;0;6040;0;0;0;0;8;0;6053;0;0;0;0;9;0;3257;0;0;0;0
03.02.18;19:45:00;1;560;11229;0;2;0;5464;0;0;0;0;3;0;3409;0;0;0;0;4;0;4687;0;0;0;0;5;0;11217;2;0;0;0;0;0;6;0;8306;2;0;0;0;0;0;7;0;6040;0;0;0;0;8;0;6053;0;0;0;0;9;0;3257;0;0;0;0
03.02.18;19:40:00;1;200;11179;0;2;0;5464;0;0;0;0;3;0;3409;0;0;0;0;4;0;4687;0;0;0;0;5;0;11217;2;0;0;0;0;0;6;0;8306;2;0;0;0;0;0;7;0;6040;0;0;0;0;8;0;6053;0;0;0;0;9;0;3257;0;0;0;0
03.02.18;19:35:00;1;188;11161;0;2;0;5464;0;0;0;0;3;0;3409;0;0;0;0;4;0;4687;0;0;0;0;5;0;11217;2;0;0;0;0;0;6;0;8306;2;0;0;0;0;0;7;0;6040;0;0;0;0;8;0;6053;0;0;0;0;9;0;3257;0;0;0;0
03.02.18;19:30:00;1;443;11145;0;2;0;5464;0;0;0;0;3;0;3409;0;0;0;0;4;0;4687;0;0;0;0;5;0;11217;2;0;0;0;0;0;6;0;8306;2;0;0;0;0;0;7;0;6040;0;0;0;0;8;0;6053;0;0;0;0;9;0;3257;0;0;0;0
03.02.18;19:25:00;1;255;11093;0;2;0;5464;0;0;0;0;3;0;3409;0;0;0;0;4;0;4687;0;0;0;0;5;0;11217;2;0;0;0;0;0;6;0;8306;2;0;0;0;0;0;7;0;6040;0;0;0;0;8;0;6053;0;0;0;0;9;0;3257;0;0;0;0
03.02.18;19:20:00;1;300;11071;0;2;0;5464;0;0;0;0;3;0;3409;0;0;0;0;4;0;4687;0;0;0;0;5;0;11217;2;0;0;0;0;0;6;0;8306;2;0;0;0;0;0;7;0;6040;0;0;0;0;8;0;6053;0;0;0;0;9;0;3257;0;0;0;0
03.02.18;19:15:00;1;269;11046;0;2;0;5464;0;0;0;0;3;0;3409;0;0;0;0;4;0;4687;0;0;0;0;5;0;11217;2;0;0;0;0;0;6;0;8306;2;0;0;0;0;0;7;0;6040;0;0;0;0;8;0;6053;0;0;0;0;9;0;3257;0;0;0;0
03.02.18;19:10:00;1;440;11024;0;2;0;5464;0;0;0;0;3;0;3409;0;0;0;0;4;0;4687;0;0;0;0;5;0;11217;2;0;0;0;0;0;6;0;8306;2;0;0;0;0;0;7;0;6040;0;0;0;0;8;0;6053;0;0;0;0;9;0;3257;0;0;0;0
03.02.18;19:05:00;1;253;10969;0;2;0;5464;0;0;0;0;3;0;3409;0;0;0;0;4;0;4687;0;0;0;0;5;0;11217;2;0;0;0;0;0;6;0;8306;2;0;0;0;0;0;7;0;6040;0;0;0;0;8;0;6053;0;0;0;0;9;0;3257;0;0;0;0
03.02.18;19:00:00;1;215;10951;0;2;0;5464;0;0;0;0;3;0;3409;0;0;0;0;4;0;4687;0;0;0;0;5;0;11217;2;0;0;0;0;0;6;0;8306;2;0;0;0;0;0;7;0;6040;0;0;0;0;8;0;6053;0;0;0;0;9;0;3257;0;0;0;0
03.02.18;18:55:00;1;452;10933;0;2;0;5464;0;0;0;0;3;0;3409;0;0;0;0;4;0;4687;0;0;0;0;5;0;11217;2;0;0;0;0;0;6;0;8306;2;0;0;0;0;0;7;0;6040;0;0;0;0;8;0;6053;0;0;0;0;9;0;3257;0;0;0;0
03.02.18;18:50:00;1;229;10882;0;2;0;5464;0;0;0;0;3;0;3409;0;0;0;0;4;0;4687;0;0;0;0;5;0;11217;2;0;0;0;0;0;6;0;8306;2;0;0;0;0;0;7;0;6040;0;0;0;0;8;0;6053;0;0;0;0;9;0;3257;0;0;0;0
03.02.18;18:45:00;1;192;10863;0;2;0;5464;0;0;0;0;3;0;3409;0;0;0;0;4;0;4687;0;0;0;0;5;0;11217;2;0;0;0;0;0;6;0;8306;2;0;0;0;0;0;7;0;6040;0;0;0;0;8;0;6053;0;0;0;0;9;0;3257;0;0;0;0
03.02.18;18:40:00;1;361;10846;0;2;0;5464;0;0;0;0;3;0;3409;0;0;0;0;4;0;4687;0;0;0;0;5;0;11217;2;0;0;0;0;0;6;0;8306;2;0;0;0;0;0;7;0;6040;0;0;0;0;8;0;6053;0;0;0;0;9;0;3257;0;0;0;0
03.02.18;18:35:00;1;185;10800;0;2;0;5464;0;0;0;0;3;0;3409;0;0;0;0;4;0;4687;0;0;0;0;5;0;11217;2;0;0;0;0;0;6;0;8306;2;0;0;0;0;0;7;0;6040;0;0;0;0;8;0;6053;0;0;0;0;9;0;3257;0;0;0;0
03.02.18;18:30:00;1;186;10785;0;2;0;5464;0;0;0;0;3;0;3409;0;0;0;0;4;0;4687;0;0;0;0;5;0;11217;2;0;0;0;0;0;6;0;8306;2;0;0;0;0;0;7;0;6040;0;0;0;0;8;0;6053;0;0;0;0;9;0;3257;0;0;0;0
03.02.18;18:25:00;1;186;10769;0;2;0;5464;0;0;0;0;3;0;3409;0;0;0;0;4;0;4687;0;0;0;0;5;0;11217;2;0;0;0;0;0;6;0;8306;2;0;0;0;0;0;7;0;6040;0;0;0;0;8;0;6053;0;0;0;0;9;0;3257;0;0;0;0
03.02.18;18:20:00;1;738;10754;0;2;0;5464;0;0;0;0;3;0;3409;0;0;0;0;4;0;4687;0;0;0;0;5;0;11217;2;0;0;0;0;0;6;0;8306;2;0;0;0;0;0;7;0;6040;0;0;0;0;8;0;6053;0;0;0;0;9;0;3257;0;0;0;0
03.02.18;18:15:00;1;470;10702;0;2;0;5464;0;0;0;0;3;0;3409;0;0;0;0;4;0;4687;0;0;0;0;5;0;11217;2;0;0;0;0;0;6;0;8306;2;0;0;0;0;0;7;0;6040;0;0;0;0;8;0;6053;0;0;0;0;9;0;3257;0;0;0;0
03.02.18;18:10:00;1;468;10665;0;2;0;5464;0;0;0;0;3;0;3409;0;0;0;0;4;0;4687;0;0;0;0;5;0;11217;2;0;0;0;0;0;6;0;8306;2;0;0;0;0;0;7;0;6040;0;0;0;0;8;0;6053;0;0;0;0;9;0;3257;0;0;0;0
03.02.18;18:05:00;1;586;10625;0;2;0;5464;0;0;0;0;3;0;3409;0;0;0;0;4;0;4687;0;0;0;0;5;0;11217;2;0;0;0;0;0;6;0;8306;2;0;0;0;0;0;7;0;6040;0;0;0;0;8;0;6053;0;0;0;0;9;0;3257;0;0;0;0
03.02.18;18:00:00;1;895;10560;0;2;0;5464;0;0;0;0;3;0;3409;0;0;0;0;4;0;4687;0;0;0;0;5;0;11217;2;0;0;0;0;0;6;0;8306;2;0;0;0;0;0;7;0;6040;0;0;0;0;8;0;6053;0;0;0;0;9;0;3257;0;0;0;0
03.02.18;17:55:00;1;558;10505;0;2;0;5464;0;0;0;0;3;0;3409;0;0;0;0;4;0;4687;0;0;0;0;5;0;11217;2;0;0;0;0;0;6;0;8306;2;0;0;0;0;0;7;0;6040;0;0;0;0;8;0;6053;0;0;0;0;9;0;3257;0;0;0;0
03.02.18;17:50:00;1;576;10458;0;2;0;5464;0;0;0;0;3;0;3409;0;0;0;0;4;0;4687;0;0;0;0;5;0;11217;2;0;0;0;0;0;6;0;8306;2;0;0;0;0;0;7;0;6040;0;0;0;0;8;0;6053;0;0;0;0;9;0;3257;0;0;0;0
03.02.18;17:45:00;1;909;10410;0;2;0;5464;0;0;0;0;3;0;3409;0;0;0;0;4;0;4687;0;0;0;0;5;0;11217;2;0;0;0;0;0;6;0;8306;2;0;0;0;0;0;7;0;6040;0;0;0;0;8;0;6053;0;0;0;0;9;0;3257;0;0;0;0
03.02.18;17:40:00;1;755;10313;0;2;0;5464;0;0;0;0;3;0;3409;0;0;0;0;4;0;4687;0;0;0;0;5;0;11217;2;0;0;0;0;0;6;0;8306;2;0;0;0;0;0;7;0;6040;0;0;0;0;8;0;6053;0;0;0;0;9;0;3257;0;0;0;0
03.02.18;17:35:00;1;753;10250;0;2;0;5464;0;0;0;0;3;0;3409;0;0;0;0;4;0;4687;0;0;0;0;5;0;11217;2;0;0;0;0;0;6;0;8306;2;0;0;0;0;0;7;0;6040;0;0;0;0;8;0;6053;0;0;0;0;9;0;3257;0;0;0;0
03.02.18;17:30:00;1;770;10187;0;2;0;5464;0;0;0;0;3;0;3409;0;0;0;0;4;0;4687;0;0;0;0;5;0;11217;2;0;0;0;0;0;6;0;8306;0;0;0;0;0;0;7;0;6040;0;0;0;0;8;0;6053;0;0;0;0;9;0;3257;0;0;0;0
03.02.18;17:25:00;1;1181;10123;0;2;0;5464;0;0;131;6;3;0;3409;0;0;187;10;4;0;4687;0;0;0;0;5;0;11217;2;0;0;0;0;0;6;0;8306;2;0;0;0;0;0;7;0;6040;0;0;0;0;8;0;6053;0;0;0;0;9;0;3257;0;0;0;0
03.02.18;17:20:00;1;646;10036;0;2;0;5464;6;0;309;12;3;0;3409;6;0;347;15;4;0;4687;0;0;0;0;5;0;11217;2;0;0;0;0;0;6;0;8306;1;0;0;0;0;1;7;0;6040;0;0;0;0;8;0;6053;0;0;0;0;9;0;3257;0;0;0;0
03.02.18;17:15:00;1;679;9982;0;2;0;5464;6;0;314;12;3;0;3409;6;0;359;15;4;0;4687;0;0;0;0;5;0;11217;2;0;1;22;21;6;6;0;8306;1;0;0;0;0;5;7;0;6040;0;0;0;0;8;0;6053;0;0;0;0;9;0;3257;0;0;0;0
03.02.18;17:10:00;1;889;9925;0;2;0;5464;6;0;322;12;3;0;3409;6;0;374;15;4;0;4687;0;0;0;0;5;0;11217;2;0;4;92;90;12;6;0;8306;0;0;0;0;0;6;7;0;6040;0;0;0;0;8;0;6053;0;0;0;0;9;0;3257;0;0;0;0
03.02.18;17:05:00;1;1561;9838;0;2;0;5464;6;0;300;13;3;0;3409;6;0;324;16;4;0;4687;0;0;0;0;5;0;11217;2;0;0;0;0;0;6;0;8306;2;0;0;0;0;0;7;0;6040;0;0;0;0;8;0;6053;0;0;0;0;9;0;3257;0;0;0;0
03.02.18;17:00:00;1;647;9771;0;2;0;5464;6;0;294;13;3;0;3409;6;0;312;16;4;0;4687;0;0;0;0;5;0;11217;2;0;0;0;0;0;6;0;8306;2;0;0;0;0;0;7;0;6040;0;0;0;0;8;0;6053;0;0;0;0;9;0;3257;0;0;0;0
03.02.18;16:55:00;1;725;9717;0;2;0;5464;6;0;300;13;3;0;3409;6;0;328;16;4;0;4687;0;0;61;9;5;0;11217;2;0;0;118;117;11;6;0;8306;2;2;0;49;88;7;7;0;6040;0;0;0;0;8;0;6053;0;0;0;0;9;0;3257;0;0;0;0
03.02.18;16:50:00;1;979;9655;0;2;0;5464;6;0;385;14;3;1;3409;6;3;464;16;4;0;4687;1;0;180;11;5;20;11217;26;3;5;403;608;22;6;0;8306;23;4;5;322;563;21;7;0;6040;6;0;367;14;8;0;6053;6;0;367;14;9;0;3257;6;1;365;11
03.02.18;16:45:00;1;741;9560;0;2;4;5464;6;8;406;14;3;4;3408;6;10;474;17;4;0;4687;3;0;224;12;5;85;11215;4;24;28;377;596;23;6;40;8306;1;14;19;449;425;22;7;1;6040;6;2;451;15;8;0;6053;6;2;454;14;9;2;3257;6;2;497;11
03.02.18;16:40:00;1;742;9498;0;2;16;5464;6;24;408;14;3;2;3408;6;6;529;17;4;3;4687;3;4;199;12;5;142;11207;4;58;52;377;596;23;6;83;8302;4;44;47;407;382;23;7;0;6039;6;5;484;15;8;0;6053;6;7;485;15;9;0;3256;6;4;534;11
03.02.18;16:35:00;1;808;9436;0;2;74;5462;4;105;369;15;3;7;3408;6;13;541;17;4;27;4687;3;28;198;12;5;220;11195;4;103;90;377;596;23;6;125;8295;4;64;71;408;383;23;7;55;6039;4;88;423;15;8;47;6053;4;88;437;15;9;10;3256;6;20;519;11
03.02.18;16:30:00;1;985;9371;0;2;154;5456;4;187;385;15;3;76;3407;6;109;516;18;4;103;4685;3;107;218;12;5;332;11176;4;163;142;377;596;23;6;189;8284;4;94;91;408;383;23;7;151;6035;4;185;448;15;8;152;6049;4;186;460;15;9;71;3256;6;94;509;12
03.02.18;16:25:00;1;837;9279;0;2;161;5444;4;194;382;16;3;92;3402;4;130;496;18;4;114;4677;5;119;223;12;5;348;11149;4;175;148;384;596;23;6;206;8268;4;90;94;408;418;23;7;154;6023;4;184;426;15;8;149;6037;4;185;439;15;9;80;3250;4;106;478;12
03.02.18;16:20:00;1;830;9212;0;2;224;5430;4;260;394;16;3;132;3394;4;172;519;18;4;170;4667;5;178;230;13;5;470;11119;4;240;195;413;596;23;6;311;8250;4;144;209;407;561;23;7;215;6009;4;244;442;15;8;215;6025;4;251;452;15;9;114;3243;4;143;511;12
03.02.18;16:15:00;1;1134;9139;0;2;247;5412;4;283;402;16;3;146;3383;4;187;532;18;4;191;4653;5;199;234;13;5;494;11079;4;250;210;409;606;23;6;327;8224;4;132;199;407;567;23;7;293;5992;4;325;450;16;8;285;6007;4;313;456;15;9;126;3234;4;157;530;12
03.02.18;16:10:00;1;1249;9041;0;2;259;5391;4;296;393;16;3;154;3371;4;196;528;18;4;202;4637;5;210;234;13;5;525;11037;4;264;223;412;616;23;6;339;8197;4;140;203;407;568;23;7;271;5968;4;304;468;16;8;266;5983;4;302;469;15;9;134;3223;4;163;519;12
03.02.18;16:05:00;1;805;8947;0;2;241;5369;4;278;389;16;3;148;3358;4;186;512;18;4;181;4620;5;188;233;13;5;475;10994;4;238;193;403;596;23;6;315;8169;4;114;160;408;561;23;7;240;5945;4;276;462;16;8;231;5961;4;277;455;15;9;124;3212;4;156;521;13
03.02.18;16:00:00;1;803;8879;0;2;230;5349;4;267;390;17;3;139;3346;4;178;514;19;4;172;4605;5;179;233;13;5;456;10955;4;225;192;404;596;24;6;301;8143;4;125;179;407;563;23;7;229;5925;4;268;457;16;8;234;5942;4;269;464;16;9;122;3202;4;153;520;13
03.02.18;15:55:00;1;801;8811;0;2;216;5330;4;248;383;17;3;127;3334;4;165;518;19;4;158;4591;5;164;230;13;5;431;10916;4;211;186;380;596;24;6;288;8117;4;131;180;408;553;23;7;214;5906;4;251;457;16;8;212;5922;4;250;455;16;9;114;3192;4;142;510;13
03.02.18;15:50:00;1;757;8744;0;2;244;5312;4;281;392;17;3;143;3324;4;182;516;19;4;174;4577;5;181;234;14;5;501;10880;4;246;217;401;626;24;6;370;8093;4;184;209;548;565;23;7;274;5888;4;318;474;16;8;280;5905;4;317;460;16;9;135;3182;4;164;516;13
03.02.18;15:45:00;1;1014;8661;0;2;273;5292;4;313;400;18;3;165;3312;4;207;513;19;4;206;4563;5;214;231;14;5;566;10838;4;287;245;407;621;24;6;434;8062;4;227;249;576;562;23;7;284;5866;4;329;478;16;8;286;5882;4;323;477;16;9;152;3171;4;181;521;13
03.02.18;15:40:00;1;729;8591;0;2;339;5269;4;382;405;18;3;209;3298;4;251;517;19;4;274;4546;5;285;237;14;5;739;10789;4;367;311;417;672;24;6;545;8024;4;270;285;585;573;23;7;369;5842;4;412;477;16;8;370;5858;4;406;474;16;9;194;3158;4;227;516;14
03.02.18;15:35:00;1;761;8530;0;2;506;5241;4;551;411;18;3;311;3281;4;362;520;20;4;425;4523;5;442;245;14;5;1054;10726;4;539;455;425;706;24;6;788;7978;4;396;414;618;578;23;7;571;5812;4;613;483;16;8;564;5827;4;607;471;16;9;297;3142;4;335;534;14
03.02.18;15:30:00;1;783;8466;0;2;695;5199;4;748;410;19;3;413;3255;4;487;517;20;4;589;4489;5;614;241;15;5;1380;10636;4;704;597;432;693;24;6;1036;7910;4;519;522;606;588;23;7;839;5765;4;873;486;16;8;818;5781;4;866;473;16;9;444;3118;4;485;531;14
03.02.18;15:25:00;1;1079;8401;0;2;960;5142;4;1021;415;19;3;583;3221;4;641;538;20;4;776;4440;5;809;247;15;5;1771;10520;4;918;772;433;711;24;6;1307;7823;4;652;659;607;585;23;7;1059;5696;4;1131;488;16;8;1058;5713;4;1112;479;16;9;568;3081;4;620;539;15
03.02.18;15:20:00;1;749;8307;0;2;1396;5062;4;1469;411;19;3;805;3172;4;877;572;20;4;1052;4376;5;1095;256;15;5;2498;10365;4;1325;1104;438;721;24;6;1898;7707;4;966;953;617;597;23;7;1831;5608;4;1950;502;16;8;1834;5626;4;1915;489;16;9;987;3034;4;1058;556;15
03.02.18;15:15:00;1;740;8245;0;2;1140;4946;4;1207;419;19;3;708;3105;4;779;548;20;4;954;4288;5;994;248;15;5;2148;10158;4;1117;942;435;702;24;6;1628;7550;4;823;822;611;597;23;7;1544;5456;4;1629;488;16;8;1504;5474;4;1581;488;16;9;809;2952;4;871;543;14
03.02.18;15:10:00;1;741;8183;0;2;1018;4849;4;1081;422;19;3;640;3046;4;702;536;20;4;873;4208;5;909;249;14;5;1890;9985;4;980;825;437;708;24;6;1433;7416;4;722;715;615;594;23;7;1139;5326;4;1208;481;16;8;1139;5346;4;1201;482;16;9;614;2884;4;669;542;14
03.02.18;15:05:00;1;1030;8121;0;2;957;4765;4;1017;420;19;3;606;2992;4;671;540;20;4;822;4135;5;856;249;14;5;1803;9827;4;938;782;444;715;24;6;1383;7297;4;701;695;615;592;23;7;1121;5230;4;1176;492;16;8;1131;5251;4;1188;489;16;9;618;2832;4;671;545;14
03.02.18;15:00:00;1;742;8029;0;2;1007;4685;4;1068;421;19;3;629;2942;4;690;543;20;4;834;4067;5;869;252;14;5;1884;9678;4;969;817;437;713;24;6;1417;7183;4;719;709;608;590;23;7;1158;5137;4;1221;505;16;8;1137;5157;4;1195;485;16;9;601;2781;4;652;543;14
03.02.18;14:55:00;1;741;7967;0;2;960;4602;4;1018;419;19;3;600;2890;4;662;540;20;4;795;3998;5;828;249;14;5;1796;9520;4;937;787;438;712;24;6;1368;7064;4;688;681;619;581;23;7;1145;5042;4;1198;488;16;8;1134;5063;4;1194;481;15;9;610;2731;4;664;545;14
03.02.18;14:50:00;1;753;7906;0;2;869;4521;4;926;417;19;3;550;2839;4;605;524;20;4;747;3931;5;778;248;14;5;1666;9371;4;867;733;436;710;24;6;1266;6949;4;651;648;613;587;23;7;984;4944;4;1044;490;16;8;977;4966;4;1040;482;16;9;528;2679;4;577;540;14
03.02.18;14:45:00;1;1072;7842;0;2;881;4448;4;941;414;19;3;556;2793;4;616;531;20;4;762;3868;5;794;249;14;5;1717;9230;4;895;747;436;702;24;6;1307;6843;4;669;658;613;589;23;7;979;4861;4;1051;492;16;8;984;4885;4;1044;489;16;9;528;2635;4;580;535;14
03.02.18;14:40:00;1;854;7743;0;2;972;4374;4;1032;420;19;3;611;2746;4;673;536;20;4;831;3805;5;866;249;14;5;1866;9086;4;979;822;438;713;24;6;1415;6733;4;729;724;613;590;23;7;1103;4780;4;1170;492;16;8;1099;4803;4;1164;488;16;9;592;2591;4;647;548;14
03.02.18;14:35:00;1;862;7671;0;2;971;4294;4;1030;421;19;3;620;2696;4;677;530;20;4;842;3736;5;877;246;14;5;1879;8929;4;991;825;435;720;23;6;1436;6615;4;729;721;611;597;23;7;1129;4688;4;1192;484;16;8;1125;4711;4;1189;492;15;9;607;2542;4;661;541;14
03.02.18;14:30:00;1;855;7599;0;2;946;4212;4;1006;417;19;3;599;2644;4;659;535;20;4;819;3665;5;853;245;14;5;1853;8773;4;965;811;430;711;23;6;1407;6496;4;715;703;619;589;22;7;1121;4593;4;1168;496;16;8;1102;4617;4;1165;490;15;9;598;2491;4;649;535;14
03.02.18;14:25:00;1;1105;7531;0;2;932;4134;4;991;417;19;3;589;2594;4;649;532;20;4;810;3597;5;844;247;14;5;1819;8618;4;939;802;433;711;23;6;1388;6379;4;709;708;613;587;22;7;1072;4499;4;1133;492;16;8;1065;4525;4;1124;484;15;9;575;2441;4;627;539;14
03.02.18;14:20:00;1;841;7433;0;2;928;4056;4;988;418;19;3;585;2545;4;646;532;20;4;804;3529;5;837;247;14;5;1821;8466;4;954;793;436;699;23;6;1377;6263;4;724;721;611;589;22;7;1033;4410;4;1095;490;16;8;1031;4436;4;1094;485;15;9;558;2394;4;612;537;14
03.02.18;14:15:00;1;743;7368;0;2;905;3978;4;966;419;19;3;576;2496;4;635;533;20;4;789;3462;5;822;244;14;5;1786;8315;4;939;779;437;712;23;6;1366;6148;4;716;713;613;594;22;7;976;4324;4;1029;486;16;8;979;4350;4;1036;492;15;9;528;2346;4;574;532;14
03.02.18;14:10:00;1;744;7306;0;2;935;3903;4;997;421;19;3;594;2448;4;656;529;20;4;823;3396;5;857;245;14;5;1881;8165;4;977;824;435;714;23;6;1427;6034;4;736;729;612;596;22;7;1018;4242;4;1075;494;16;8;1018;4268;4;1073;489;15;9;546;2302;4;596;533;14
03.02.18;14:05:00;1;1032;7243;0;2;1024;3825;4;1086;418;18;3;647;2398;4;710;530;20;4;899;3328;5;937;247;14;5;2042;8007;4;1066;893;438;720;23;6;1550;5915;4;803;792;610;590;22;7;1101;4158;4;1178;499;16;8;1116;4183;4;1179;493;15;9;604;2257;4;657;536;14
03.02.18;14:00:00;1;746;7151;0;2;971;3740;4;1033;416;18;3;617;2345;4;680;537;19;4;849;3253;5;885;248;13;5;1909;7836;4;1009;840;441;715;23;6;1454;5786;4;742;734;608;596;22;7;1101;4066;4;1163;490;16;8;1100;4091;4;1167;491;15;9;599;2206;4;646;533;13